Terug naar catalogus

CZ-6A DEB

ActiefPO
NORAD 61796·DEBRIS·🇨🇳 China

Gelanceerd Aug 6, 2024 vanaf Taiyuan Satellite Launch Center

Loading…

Volgende Passages (komende 24 uur)

TLE

VersSource: Space-Track

Epoch: Sep 14, 2026, 09:43 UTC

1 61796U 24140ABL 26257.40534309  .00000529  00000-0  26518-3 0  9991
2 61796  88.7963 247.6428 0072840 290.9863  68.3541 14.13920718105495

Volg CZ-6A DEB in realtime met AllMySat

Download on the App Store